| time (UTC) | temp C | wind direction | speed KPH | gust KPH | rain 1hr cm | rain 24hr cm | rain mn cm | humidity % | barometer mb |
| 20260504174553 | 22 | 208 | 3.2 | 11.3 | 0.00 | 0.00 | 0.00 | 33 | 1011.9 |
| 20260504173050 | 22 | 245 | 1.6 | 14.5 | 0.00 | 0.00 | 0.00 | 33 | 1012.0 |
| 20260504171547 | 21 | 91 | 1.6 | 14.5 | 0.00 | 0.00 | 0.00 | 34 | 1012.3 |
| 20260504081523 | 8 | 276 | 0.0 | 3.2 | 0.00 | 0.00 | 0.00 | 67 | 1014.8 |
| 20260504050107 | 9 | 200 | 0.0 | 3.2 | 0.00 | 0.00 | 0.00 | 58 | 1014.4 |
| 20260504044602 | 10 | 239 | 0.0 | 4.8 | 0.00 | 0.00 | 0.00 | 56 | 1014.3 |
| 20260504043057 | 10 | 231 | 0.0 | 1.6 | 0.00 | 0.00 | 0.00 | 56 | 1014.2 |
| 20260504041558 | 10 | 268 | 0.0 | 1.6 | 0.00 | 0.00 | 0.00 | 54 | 1014.1 |
| 20260504040053 | 10 | 252 | 0.0 | 0.0 | 0.00 | 0.00 | 0.00 | 53 | 1014.0 |
| 20260504034551 | 10 | 252 | 0.0 | 1.6 | 0.00 | 0.00 | 0.00 | 52 | 1013.8 |
| 20260504033051 | 10 | 252 | 0.0 | 0.0 | 0.00 | 0.00 | 0.00 | 51 | 1013.8 |
| 20260504031550 | 10 | 252 | 0.0 | 1.6 | 0.00 | 0.00 | 0.00 | 50 | 1013.6 |
| 20260504030049 | 11 | 105 | 0.0 | 1.6 | 0.00 | 0.00 | 0.00 | 49 | 1013.7 |
| 20260504024603 | 11 | 298 | 0.0 | 1.6 | 0.00 | 0.00 | 0.00 | 49 | 1013.7 |
| 20260504023049 | 11 | 243 | 0.0 | 1.6 | 0.00 | 0.00 | 0.00 | 47 | 1013.7 |
| 20260504021547 | 11 | 243 | 0.0 | 1.6 | 0.00 | 0.00 | 0.00 | 44 | 1013.7 |
| 20260504020048 | 12 | 246 | 0.0 | 1.6 | 0.00 | 0.00 | 0.00 | 43 | 1013.6 |
| 20260504014547 | 12 | 260 | 0.0 | 1.6 | 0.00 | 0.00 | 0.00 | 42 | 1013.6 |
| 20260504013048 | 12 | 237 | 0.0 | 1.6 | 0.00 | 0.00 | 0.00 | 41 | 1013.5 |
| 20260504011548 | 12 | 257 | 0.0 | 3.2 | 0.00 | 0.00 | 0.00 | 40 | 1013.3 |
| 20260504010045 | 13 | 236 | 0.0 | 1.6 | 0.00 | 0.00 | 0.00 | 39 | 1013.1 |
| 20260504004547 | 13 | 243 | 0.0 | 3.2 | 0.00 | 0.00 | 0.00 | 39 | 1012.9 |
| 20260504003145 | 13 | 269 | 0.0 | 1.6 | 0.00 | 0.00 | 0.00 | 38 | 1012.8 |
| 20260504001545 | 13 | 230 | 0.0 | 3.2 | 0.00 | 0.00 | 0.00 | 37 | 1012.6 |
| 20260504000112 | 13 | 225 | 1.6 | 6.4 | 0.00 | 0.00 | 0.00 | 36 | 1012.6 |
| 20260503234551 | 14 | 264 | 1.6 | 8.0 | 0.00 | 0.00 | 0.00 | 35 | 1012.4 |
| 20260503233042 | 15 | 211 | 1.6 | 9.7 | 0.00 | 0.00 | 0.00 | 34 | 1012.3 |
| 20260503231541 | 15 | 290 | 1.6 | 9.7 | 0.00 | 0.00 | 0.00 | 32 | 1012.2 |
| 20260503230041 | 15 | 250 | 0.0 | 11.3 | 0.00 | 0.00 | 0.00 | 32 | 1012.1 |
| 20260503224540 | 15 | 238 | 4.8 | 11.3 | 0.00 | 0.00 | 0.00 | 31 | 1012.0 |
| 20260503223040 | 15 | 245 | 1.6 | 14.5 | 0.00 | 0.00 | 0.00 | 31 | 1012.0 |
| 20260503221640 | 16 | 247 | 3.2 | 9.7 | 0.00 | 0.00 | 0.00 | 30 | 1011.9 |
| 20260503220039 | 16 | 141 | 1.6 | 12.9 | 0.00 | 0.00 | 0.00 | 31 | 1011.9 |
| 20260503214541 | 16 | 300 | 3.2 | 9.7 | 0.00 | 0.00 | 0.00 | 31 | 1012.1 |
| 20260503213035 | 16 | 256 | 0.0 | 9.7 | 0.00 | 0.00 | 0.00 | 31 | 1012.0 |
| 20260503211533 | 16 | 294 | 1.6 | 11.3 | 0.00 | 0.00 | 0.00 | 33 | 1012.0 |
| 20260503210031 | 16 | 63 | 3.2 | 11.3 | 0.00 | 0.00 | 0.00 | 33 | 1012.0 |
| 20260503204531 | 16 | 215 | 4.8 | 17.7 | 0.00 | 0.00 | 0.00 | 31 | 1012.0 |
| 20260503203040 | 16 | 256 | 1.6 | 9.7 | 0.00 | 0.00 | 0.00 | 37 | 1012.1 |
| 20260503201533 | 15 | 247 | 3.2 | 11.3 | 0.00 | 0.00 | 0.00 | 34 | 1012.2 |
| 20260503200025 | 15 | 265 | 3.2 | 14.5 | 0.00 | 0.00 | 0.00 | 33 | 1012.3 |
| 20260503194525 | 15 | 360 | 3.2 | 9.7 | 0.00 | 0.00 | 0.00 | 33 | 1012.3 |
| 20260503193024 | 15 | 245 | 3.2 | 11.3 | 0.00 | 0.00 | 0.00 | 34 | 1012.5 |
| 20260503191521 | 15 | 229 | 3.2 | 12.9 | 0.00 | 0.00 | 0.00 | 32 | 1012.6 |
| 20260503190028 | 15 | 284 | 1.6 | 11.3 | 0.00 | 0.00 | 0.00 | 34 | 1012.7 |
| 20260503184521 | 15 | 286 | 4.8 | 11.3 | 0.00 | 0.00 | 0.00 | 32 | 1012.9 |
| 20260503183020 | 15 | 275 | 3.2 | 16.1 | 0.00 | 0.00 | 0.00 | 34 | 1013.1 |
| 20260503181516 | 15 | 251 | 3.2 | 12.9 | 0.00 | 0.00 | 0.00 | 38 | 1013.0 |
| 20260503180022 | 14 | 210 | 6.4 | 16.1 | 0.00 | 0.00 | 0.00 | 35 | 1013.2 |